• Em Portugal
  • Lista de países
  • Para 7 dias
  • Temperatura da água
  • Mapas de satélite
  • Mapa do tempo
  • Widgets de tempo
  • user-avatar
    Iniciar Sessão

    Previsão horária em Veliko Tarnovo

    Hoje, 14 Novembro, Quarta-feira

    Tempo Temperatura Precipitação Vento Pressão Humidade
    00:00 +7°C° 0 mm 2 m/s 748 mmHg 86%
    01:00 +7°C° 0 mm 1 m/s 748 mmHg 87%
    02:00 +7°C° 0 mm 1 m/s 747 mmHg 88%
    03:00 +7°C° 0 mm 1 m/s 747 mmHg 89%
    04:00 +7°C° 0 mm 1 m/s 747 mmHg 89%
    05:00 +6°C° 0 mm 1 m/s 746 mmHg 90%
    06:00 +7°C° 0 mm 1 m/s 746 mmHg 89%
    07:00 +7°C° 0 mm 1 m/s 746 mmHg 87%
    08:00 +7°C° 0 mm 1 m/s 746 mmHg 86%
    09:00 +9°C° 0 mm 1 m/s 746 mmHg 80%
    10:00 +10°C° 0 mm 1 m/s 746 mmHg 73%
    11:00 +12°C° 0 mm 2 m/s 746 mmHg 67%
    12:00 +12°C° 0 mm 2 m/s 745 mmHg 65%
    13:00 +13°C° 0 mm 2 m/s 745 mmHg 63%
    14:00 +13°C° 0 mm 2 m/s 744 mmHg 61%
    15:00 +13°C° 0 mm 2 m/s 744 mmHg 64%
    16:00 +12°C° 0 mm 2 m/s 744 mmHg 66%
    17:00 +11°C° 0 mm 1 m/s 744 mmHg 69%
    18:00 +11°C° 0 mm 1 m/s 744 mmHg 71%
    19:00 +11°C° 0 mm 1 m/s 744 mmHg 73%
    20:00 +11°C° 0 mm 1 m/s 744 mmHg 75%
    21:00 +11°C° 0.1 mm 1 m/s 744 mmHg 76%
    22:00 +10°C° 0.1 mm 1 m/s 744 mmHg 78%
    23:00 +10°C° 0.1 mm 1 m/s 744 mmHg 80%

    Amanhã, 15 Novembro, Quinta-feira

    Tempo Temperatura Precipitação Vento Pressão Humidade
    00:00 +10°C° 0.3 mm 1 m/s 744 mmHg 81%
    01:00 +10°C° 0.3 mm 1 m/s 744 mmHg 82%
    02:00 +9°C° 0.3 mm 2 m/s 743 mmHg 83%
    03:00 +8°C° 1.1 mm 2 m/s 743 mmHg 85%
    04:00 +8°C° 1.1 mm 3 m/s 743 mmHg 87%
    05:00 +7°C° 1.1 mm 3 m/s 743 mmHg 89%
    06:00 +7°C° 1.2 mm 3 m/s 743 mmHg 87%
    07:00 +7°C° 1.2 mm 3 m/s 743 mmHg 86%
    08:00 +7°C° 1.2 mm 3 m/s 744 mmHg 84%
    09:00 +7°C° 0 mm 3 m/s 744 mmHg 81%
    10:00 +7°C° 0 mm 3 m/s 744 mmHg 77%
    11:00 +8°C° 0 mm 3 m/s 745 mmHg 73%
    12:00 +8°C° 0 mm 3 m/s 745 mmHg 71%
    13:00 +9°C° 0 mm 3 m/s 744 mmHg 69%
    14:00 +9°C° 0 mm 3 m/s 744 mmHg 66%
    15:00 +9°C° 0.1 mm 3 m/s 744 mmHg 69%
    16:00 +8°C° 0.1 mm 3 m/s 744 mmHg 71%
    17:00 +8°C° 0.1 mm 2 m/s 744 mmHg 73%
    18:00 +7°C° 0.1 mm 2 m/s 744 mmHg 76%
    19:00 +7°C° 0.1 mm 2 m/s 745 mmHg 78%
    20:00 +7°C° 0.1 mm 1 m/s 745 mmHg 80%
    21:00 +7°C° 0.1 mm 1 m/s 745 mmHg 81%
    22:00 +7°C° 0.1 mm 1 m/s 745 mmHg 82%
    23:00 +7°C° 0.1 mm 1 m/s 745 mmHg 84%

    Depois de amanhã, 16 Novembro, Sexta-feira

    Tempo Temperatura Precipitação Vento Pressão Humidade
    00:00 +6°C° 0 mm 1 m/s 745 mmHg 85%
    01:00 +6°C° 0 mm 1 m/s 746 mmHg 87%
    02:00 +5°C° 0 mm 2 m/s 746 mmHg 89%
    03:00 +5°C° 0 mm 2 m/s 746 mmHg 89%
    04:00 +5°C° 0 mm 2 m/s 746 mmHg 89%
    05:00 +4°C° 0 mm 2 m/s 746 mmHg 90%
    06:00 +4°C° 0 mm 2 m/s 746 mmHg 89%
    07:00 +4°C° 0 mm 2 m/s 747 mmHg 87%
    08:00 +3°C° 0 mm 3 m/s 747 mmHg 86%
    09:00 +3°C° 0 mm 3 m/s 747 mmHg 80%
    10:00 +4°C° 0 mm 4 m/s 747 mmHg 75%
    11:00 +4°C° 0 mm 4 m/s 748 mmHg 70%
    12:00 +4°C° 0.1 mm 4 m/s 747 mmHg 69%
    13:00 +4°C° 0.1 mm 4 m/s 747 mmHg 69%
    14:00 +4°C° 0.1 mm 4 m/s 747 mmHg 68%
    15:00 +4°C° 0.1 mm 3 m/s 747 mmHg 68%
    16:00 +4°C° 0.1 mm 3 m/s 747 mmHg 67%
    17:00 +3°C° 0.1 mm 3 m/s 747 mmHg 67%
    18:00 +3°C° 0 mm 3 m/s 748 mmHg 67%
    19:00 +4°C° 0 mm 2 m/s 748 mmHg 68%
    20:00 +3°C° 0 mm 2 m/s 748 mmHg 68%
    21:00 +3°C° 0 mm 2 m/s 748 mmHg 68%
    22:00 +3°C° 0 mm 2 m/s 748 mmHg 68%
    23:00 +2°C° 0 mm 2 m/s 749 mmHg 68%

    17 Novembro, Sábado

    Tempo Temperatura Precipitação Vento Pressão Humidade
    00:00 +2°C° 0 mm 2 m/s 749 mmHg 69%
    01:00 +2°C° 0 mm 2 m/s 749 mmHg 70%
    02:00 +2°C° 0 mm 2 m/s 749 mmHg 70%
    03:00 +1°C° 0 mm 2 m/s 749 mmHg 71%
    04:00 +1°C° 0 mm 2 m/s 749 mmHg 72%
    05:00 +1°C° 0 mm 2 m/s 749 mmHg 73%
    06:00 +1°C° 0 mm 2 m/s 749 mmHg 72%
    07:00 +1°C° 0 mm 2 m/s 749 mmHg 72%
    08:00 +1°C° 0 mm 2 m/s 749 mmHg 72%
    09:00 +1°C° 0 mm 3 m/s 750 mmHg 69%
    10:00 +1°C° 0 mm 3 m/s 750 mmHg 66%
    11:00 +2°C° 0 mm 3 m/s 750 mmHg 63%
    12:00 +2°C° 0 mm 3 m/s 749 mmHg 63%
    13:00 +2°C° 0 mm 3 m/s 749 mmHg 63%
    14:00 +3°C° 0 mm 3 m/s 749 mmHg 62%
    15:00 +2°C° 0 mm 3 m/s 749 mmHg 65%
    16:00 +3°C° 0 mm 2 m/s 749 mmHg 68%
    17:00 +2°C° 0 mm 2 m/s 749 mmHg 70%
    18:00 +2°C° 0 mm 2 m/s 749 mmHg 72%
    19:00 +1°C° 0 mm 2 m/s 750 mmHg 74%
    20:00 +1°C° 0 mm 2 m/s 750 mmHg 76%
    21:00 +2°C° 0 mm 1 m/s 750 mmHg 75%
    22:00 +2°C° 0 mm 1 m/s 750 mmHg 74%
    23:00 +2°C° 0 mm 1 m/s 750 mmHg 74%

    18 Novembro, Domingo

    Tempo Temperatura Precipitação Vento Pressão Humidade
    00:00 +2°C° 0 mm 1 m/s 750 mmHg 74%
    01:00 +1°C° 0 mm 1 m/s 750 mmHg 75%
    02:00 +1°C° 0 mm 1 m/s 750 mmHg 76%
    03:00 +1°C° 0 mm 1 m/s 749 mmHg 75%
    04:00 0°C° 0 mm 1 m/s 749 mmHg 74%
    05:00 0°C° 0 mm 1 m/s 749 mmHg 74%
    06:00 0°C° 0 mm 1 m/s 749 mmHg 72%
    07:00 0°C° 0 mm 1 m/s 749 mmHg 70%
    08:00 +1°C° 0 mm 1 m/s 749 mmHg 68%
    09:00 +2°C° 0 mm 1 m/s 749 mmHg 63%
    10:00 +2°C° 0 mm 2 m/s 748 mmHg 57%
    11:00 +4°C° 0 mm 2 m/s 748 mmHg 51%
    12:00 +5°C° 0 mm 2 m/s 748 mmHg 49%
    13:00 +5°C° 0 mm 2 m/s 747 mmHg 47%
    14:00 +6°C° 0 mm 2 m/s 746 mmHg 45%
    15:00 +5°C° 0 mm 2 m/s 745 mmHg 49%
    16:00 +5°C° 0 mm 1 m/s 745 mmHg 52%
    17:00 +4°C° 0 mm 1 m/s 744 mmHg 56%
    18:00 +3°C° 0 mm 1 m/s 744 mmHg 58%
    19:00 +3°C° 0 mm 1 m/s 744 mmHg 59%
    20:00 +2°C° 0 mm 1 m/s 743 mmHg 61%
    21:00 +2°C° 0 mm 1 m/s 743 mmHg 62%
    22:00 +2°C° 0 mm 1 m/s 743 mmHg 63%
    23:00 +2°C° 0 mm 1 m/s 742 mmHg 64%

    19 Novembro, Segunda-feira

    Tempo Temperatura Precipitação Vento Pressão Humidade
    00:00 +1°C° 0 mm 0 m/s 741 mmHg 65%
    01:00 +1°C° 0 mm 0 m/s 741 mmHg 65%
    02:00 +1°C° 0 mm 0 m/s 740 mmHg 66%
    03:00 +1°C° 0 mm 0 m/s 740 mmHg 66%
    04:00 +1°C° 0 mm 0 m/s 739 mmHg 66%
    05:00 +1°C° 0 mm 0 m/s 739 mmHg 65%
    06:00 +1°C° 0 mm 0 m/s 739 mmHg 65%
    07:00 +1°C° 0 mm 0 m/s 739 mmHg 65%
    08:00 +1°C° 0 mm 0 m/s 738 mmHg 64%
    09:00 +2°C° 0 mm 0 m/s 738 mmHg 59%
    10:00 +5°C° 0 mm 1 m/s 738 mmHg 54%
    11:00 +6°C° 0 mm 1 m/s 738 mmHg 48%
    12:00 +7°C° 0 mm 1 m/s 738 mmHg 48%
    13:00 +7°C° 0 mm 1 m/s 737 mmHg 48%
    14:00 +8°C° 0 mm 1 m/s 737 mmHg 48%
    15:00 +7°C° 0 mm 1 m/s 737 mmHg 51%
    16:00 +6°C° 0 mm 1 m/s 737 mmHg 54%
    17:00 +6°C° 0 mm 1 m/s 737 mmHg 57%
    18:00 +6°C° 0.2 mm 1 m/s 737 mmHg 60%
    19:00 +5°C° 0.2 mm 1 m/s 737 mmHg 63%
    20:00 +5°C° 0.2 mm 1 m/s 737 mmHg 66%
    21:00 +5°C° 0.4 mm 1 m/s 737 mmHg 70%
    22:00 +5°C° 0.4 mm 1 m/s 736 mmHg 74%
    23:00 +4°C° 0.4 mm 1 m/s 736 mmHg 78%
    Mostrar mais